Wind_Speed
16 18 20 20 22 25 28 28 30 30 31 31 32 32 32 33 33 32 32 32 32 32 32 31 30 29 29 28 27 25 21 19 17 15 16 16 17 18 19 22 23 22 21 21
16 19 21 21 22 26 27 28 29 30 30 30 31 30 30 30 29 29 30 30 30 30 29 28 27 25 24 23 21 20 18 14 13 12 12 12 12 13 13 15 16 17 18 19
18 20 21 21 23 25 27 28 29 31 30 31 31 31 30 30 29 29 29 29 28 27 27 26 24 21 20 19 18 16 15 14 13 12 11 11 11 12 13 14 15 16 18 19
22 22 21 21 24 27 28 28 30 32 33 33 34 33 31 32 31 29 29 28 27 26 25 23 21 19 17 16 15 15 14 13 12 11 11 11 12 13 14 15 17 18 19 20
26 26 25 26 27 28 30 29 31 32 33 34 35 34 33 34 33 31 30 28 27 25 24 22 19 17 16 14 13 13 13 12 12 12 12 13 14 15 16 17 18 18 18 18
30 30 30 32 32 32 32 33 33 33 34 35 35 35 34 35 34 33 31 28 27 25 24 21 18 16 14 13 12 11 11 11 12 12 13 14 15 16 16 17 16 15 14 13
32 32 34 35 35 35 36 37 36 36 36 37 36 35 35 35 35 33 31 29 27 25 24 21 18 15 13 11 10 10 10 11 11 12 12 12 13 13 13 13 12 11 11 11
35 35 37 38 38 39 39 39 39 39 39 39 38 36 35 35 34 34 32 29 27 26 25 22 18 15 12 11 10 9 9 9 10 9 9 9 8 8 8 8 8 9 9 10
38 39 40 41 42 42 42 42 42 41 40 40 39 37 36 35 34 33 32 31 28 26 26 24 21 18 15 13 12 11 10 10 9 8 8 7 7 7 7 7 8 8 9 9
41 43 44 45 46 47 47 46 46 45 42 40 39 38 37 36 34 33 33 31 29 26 27 27 24 21 19 17 15 14 12 11 10 9 8 8 7 8 8 8 9 9 9 10
44 46 46 48 50 51 52 52 51 48 44 42 40 39 38 37 35 34 33 32 30 28 28 29 28 25 22 20 18 17 15 13 12 12 11 10 10 10 10 10 10 11 11 11
47 49 51 53 54 56 56 56 55 52 49 45 43 41 40 39 37 36 34 32 31 29 29 31 31 29 26 23 21 20 18 16 15 14 13 13 13 13 13 13 13 13 13 13
51 54 56 58 59 60 59 58 56 55 53 50 47 44 42 41 39 38 36 34 31 30 31 32 33 32 29 27 25 23 21 20 18 17 16 16 16 16 17 17 17 16 16 16
56 58 59 60 60 59 59 58 56 55 54 51 50 48 45 44 42 40 38 36 33 32 33 33 34 34 33 31 29 27 25 23 22 21 20 19 18 18 18 18 18 18 18 18
59 59 59 59 58 58 59 59 58 58 57 55 53 51 47 46 44 41 40 38 35 33 33 34 34 35 34 33 32 31 29 27 26 24 23 22 22 21 20 20 20 19 19 18
59 58 58 59 60 61 63 65 63 63 64 62 59 56 51 48 45 42 41 40 37 35 34 33 33 34 33 32 32 32 31 30 29 27 26 25 25 24 23 22 21 20 19 19
63 62 62 63 66 70 72 74 74 72 70 68 65 60 54 50 48 45 42 41 40 38 36 35 34 32 31 30 30 31 31 30 29 28 28 27 26 26 24 23 22 21 21 20
64 66 68 70 71 70 70 69 68 68 68 67 66 64 60 54 51 48 45 41 41 41 41 39 36 33 30 29 27 27 28 28 28 27 27 26 26 25 25 23 22 22 22 21
65 66 65 63 61 59 56 53 50 49 49 49 51 55 57 56 54 50 46 43 41 42 43 43 40 36 32 30 27 26 26 25 25 25 24 24 23 23 23 23 22 22 22 22
60 57 56 55 52 50 48 46 45 44 43 43 42 42 45 50 54 53 48 45 42 40 41 45 45 40 35 30 27 25 24 23 23 22 21 20 20 20 20 20 20 20 21 21
54 52 49 46 45 44 44 44 43 43 42 42 40 36 35 39 46 51 50 46 44 38 40 43 45 43 38 33 28 26 24 23 22 21 19 18 17 16 16 17 18 18 19 20
49 46 43 42 41 41 41 42 44 44 43 41 39 34 29 29 35 43 47 45 44 39 37 40 44 44 40 35 32 29 26 25 23 21 20 18 16 14 14 14 15 16 18 19
44 41 39 40 41 41 42 44 45 44 42 40 38 32 26 23 27 34 40 43 43 41 37 36 43 46 42 37 34 32 29 27 25 24 22 20 18 16 14 14 14 15 17 18
39 38 40 42 43 44 45 44 44 43 41 38 35 30 25 21 23 30 35 39 40 39 36 34 39 46 45 39 35 33 31 29 28 26 25 23 21 19 17 16 15 16 16 17
38 39 41 42 44 44 43 43 42 39 35 33 31 27 22 19 21 27 33 37 38 37 34 32 35 42 45 42 37 34 32 31 30 29 28 26 24 23 21 19 18 17 17 17
37 39 40 41 41 40 40 40 39 36 33 31 27 23 18 14 18 26 32 35 36 34 32 30 32 38 42 41 38 35 34 33 32 31 30 29 28 26 24 22 20 20 19 19
36 36 37 36 36 36 37 37 36 33 30 28 25 19 13 8 16 25 31 32 32 30 29 29 30 33 37 39 38 37 36 35 33 32 31 30 28 27 26 24 22 21 21 20
Wind_Direction
311 306 307 311 307 303 304 307 306 306 304 306 304 304 302 297 292 288 284 282 283 289 296 303 308 311 312 315 317 315 308 297 284 271 255 244 240 237 234 235 238 239 243 250
318 312 315 315 308 306 309 312 309 307 308 308 309 309 308 305 299 291 285 282 283 288 295 302 308 310 312 315 318 316 309 299 289 276 273 268 263 261 258 255 254 255 256 259
322 319 321 318 310 310 312 314 311 310 313 313 312 313 311 306 302 295 288 283 284 288 294 301 306 309 308 312 315 313 309 301 291 285 283 282 280 278 275 272 270 268 267 268
327 325 326 318 311 311 312 313 310 311 313 313 312 313 310 306 302 298 292 283 282 286 291 297 303 305 305 307 310 308 304 300 294 288 287 285 283 280 278 278 275 272 272 273
326 325 326 317 314 315 313 312 307 309 310 310 311 310 308 305 303 300 294 287 279 280 284 291 296 300 300 301 302 302 299 293 290 286 284 282 280 278 277 276 274 274 274 271
320 320 319 314 315 314 312 310 309 310 309 308 308 307 306 303 304 300 295 289 278 274 276 282 288 291 292 292 293 292 290 288 287 284 282 279 276 273 273 274 276 275 270 264
311 312 311 310 311 310 309 309 310 309 306 305 304 305 304 302 301 300 297 291 279 268 267 270 277 281 280 279 281 283 285 284 283 281 280 278 274 270 269 270 268 263 258 256
308 309 308 308 309 307 307 308 307 306 304 303 302 302 302 300 299 298 295 292 281 266 259 260 263 266 267 266 267 272 277 280 281 281 280 276 267 260 255 251 248 247 247 251
306 307 305 305 305 305 305 305 305 304 303 300 299 299 298 297 296 293 292 290 283 266 254 251 252 254 255 256 259 263 267 270 272 272 269 263 254 244 238 235 236 240 244 249
304 305 304 303 302 302 303 302 302 302 300 297 295 295 295 294 293 290 288 286 282 268 253 247 246 248 251 253 255 255 257 261 262 261 258 253 246 241 239 238 240 244 251 258
303 300 299 299 298 298 299 300 300 299 297 292 290 289 289 290 289 288 286 283 280 268 253 245 243 243 247 250 250 250 251 253 254 255 254 252 250 247 246 247 250 254 259 265
300 298 297 296 295 296 296 296 296 295 292 289 286 284 283 284 285 283 282 279 277 269 256 245 240 240 243 246 247 246 247 248 250 251 253 253 253 253 253 254 255 258 261 265
299 298 297 296 296 295 294 293 292 290 288 286 284 282 279 278 278 277 276 274 273 267 257 246 239 237 239 243 245 245 246 247 248 250 253 255 256 256 256 256 256 258 260 263
298 298 297 296 295 293 291 289 288 286 284 283 282 282 278 275 273 273 272 268 266 261 256 247 238 235 237 240 243 245 246 247 249 251 255 257 258 259 259 258 256 257 259 262
300 299 298 296 295 292 288 285 283 281 279 279 281 283 280 274 271 269 267 264 261 257 254 247 237 234 236 239 241 243 245 247 248 252 256 257 258 260 261 259 257 257 257 259
307 306 303 298 294 290 287 283 281 280 279 278 279 279 278 273 269 267 263 257 254 250 248 245 237 234 237 240 241 241 243 245 248 251 254 257 258 259 261 261 258 256 256 258
311 307 302 296 291 287 286 285 284 283 281 279 276 273 271 270 266 263 261 252 245 242 240 239 236 235 238 241 241 240 240 243 246 250 254 256 257 257 259 260 258 255 255 257
305 301 298 296 295 295 295 296 297 296 293 287 279 272 265 262 261 260 257 252 245 238 234 234 234 235 237 240 242 240 239 240 243 247 250 252 254 256 258 259 258 256 254 255
304 304 304 305 307 308 308 309 309 308 306 300 288 275 266 259 256 255 253 250 246 238 231 231 232 232 234 237 240 240 237 237 239 242 246 248 251 255 258 259 259 257 254 253
311 311 311 312 313 313 313 314 315 316 314 312 304 288 272 259 252 249 248 247 245 239 231 228 228 229 229 230 234 233 232 231 233 235 238 242 247 252 257 259 259 257 253 252
315 316 316 316 316 317 316 317 317 318 317 316 313 301 281 262 249 244 243 243 242 239 230 225 225 225 225 226 227 226 225 226 227 228 230 234 241 248 255 258 259 258 255 253
320 320 320 320 320 319 319 318 318 318 316 316 316 309 291 268 248 240 237 238 238 237 231 222 219 220 221 222 223 220 220 221 222 223 225 230 236 244 252 258 260 260 258 256
324 325 325 324 324 322 322 320 318 317 316 315 315 309 294 273 247 236 233 232 233 233 229 221 216 214 215 218 218 217 216 217 219 222 225 230 235 242 250 256 261 262 261 259
327 327 325 325 325 324 324 323 321 319 317 315 313 308 292 272 244 228 224 224 227 228 224 219 213 211 213 214 215 215 216 218 220 223 228 234 239 244 249 255 260 262 261 260
329 329 329 328 328 329 330 329 328 326 323 320 317 311 295 267 235 216 212 215 219 220 220 218 212 209 210 212 214 215 217 220 223 227 231 235 240 244 249 253 258 262 262 262
331 332 332 333 335 336 336 335 335 334 331 329 324 318 301 264 222 202 200 205 210 212 214 214 209 206 208 211 214 216 218 221 225 229 232 236 240 244 248 253 257 262 264 265
334 334 335 338 341 341 342 342 342 344 345 347 345 336 320 259 207 192 189 192 199 205 209 211 208 206 208 212 214 217 220 223 226 230 233 236 240 243 246 250 254 260 263 265
Height
5828 5824 5822 5819 5816 5812 5808 5805 5801 5798 5793 5789 5783 5778 5774 5769 5765 5763 5762 5760 5758 5756 5752 5747 5742 5736 5730 5724 5718 5713 5709 5706 5704 5704 5704 5705 5706 5708 5711 5714 5717 5719 5722 5724
5823 5819 5816 5814 5810 5806 5802 5798 5794 5789 5786 5781 5775 5770 5765 5761 5757 5755 5753 5751 5749 5747 5743 5739 5734 5729 5724 5719 5714 5710 5707 5705 5704 5704 5704 5704 5705 5706 5708 5711 5712 5714 5716 5719
5819 5815 5812 5809 5804 5800 5796 5792 5788 5783 5780 5773 5768 5763 5758 5753 5750 5747 5744 5742 5740 5738 5735 5732 5728 5723 5719 5715 5711 5708 5705 5703 5702 5702 5702 5702 5702 5704 5705 5707 5709 5710 5712 5714
5813 5810 5807 5805 5798 5794 5790 5787 5780 5776 5771 5766 5761 5756 5751 5746 5742 5739 5736 5734 5732 5730 5728 5725 5721 5718 5715 5711 5709 5706 5703 5702 5701 5700 5700 5700 5700 5701 5702 5703 5705 5706 5707 5709
5807 5804 5800 5797 5791 5787 5782 5779 5773 5768 5763 5758 5753 5749 5745 5739 5734 5731 5728 5725 5724 5722 5720 5718 5715 5713 5710 5708 5705 5703 5702 5700 5699 5698 5698 5698 5698 5698 5699 5700 5701 5701 5702 5703
5801 5797 5793 5790 5784 5779 5775 5770 5764 5760 5754 5749 5744 5741 5738 5731 5727 5723 5720 5717 5715 5714 5713 5712 5710 5707 5705 5704 5702 5701 5699 5698 5697 5696 5696 5696 5695 5695 5696 5696 5696 5696 5697 5698
5794 5790 5786 5781 5776 5771 5767 5764 5757 5751 5746 5741 5736 5732 5728 5723 5718 5715 5712 5709 5707 5706 5705 5705 5704 5702 5701 5700 5699 5698 5697 5696 5695 5694 5693 5693 5692 5692 5692 5692 5692 5693 5694 5694
5786 5783 5780 5771 5766 5762 5758 5753 5748 5742 5737 5732 5727 5722 5718 5713 5709 5705 5703 5701 5698 5697 5697 5698 5698 5697 5697 5696 5695 5695 5694 5693 5692 5691 5691 5690 5689 5689 5689 5689 5689 5690 5691 5692
5778 5776 5769 5762 5756 5751 5746 5741 5736 5731 5727 5722 5717 5713 5709 5704 5700 5696 5694 5692 5690 5689 5689 5690 5691 5691 5692 5692 5691 5691 5690 5690 5689 5689 5688 5688 5687 5687 5687 5687 5687 5688 5688 5689
5768 5763 5757 5751 5744 5739 5734 5728 5723 5718 5714 5709 5705 5702 5698 5694 5691 5687 5684 5682 5681 5680 5681 5682 5683 5685 5685 5686 5686 5686 5686 5686 5686 5686 5685 5685 5685 5684 5684 5685 5685 5685 5685 5686
5757 5751 5745 5738 5731 5726 5720 5715 5710 5705 5700 5696 5692 5689 5686 5683 5680 5677 5674 5672 5671 5670 5671 5673 5675 5677 5678 5679 5680 5680 5681 5681 5681 5681 5681 5681 5681 5681 5682 5682 5682 5682 5682 5682
5745 5737 5731 5725 5718 5712 5706 5701 5695 5691 5686 5681 5678 5675 5672 5670 5668 5665 5663 5661 5661 5660 5661 5663 5665 5668 5670 5671 5673 5674 5675 5675 5676 5676 5677 5677 5677 5677 5677 5678 5678 5678 5678 5678
5729 5722 5715 5708 5702 5695 5689 5684 5678 5673 5669 5665 5662 5659 5657 5655 5654 5652 5651 5650 5649 5649 5650 5652 5655 5658 5660 5663 5665 5666 5668 5669 5670 5671 5671 5672 5672 5672 5672 5673 5673 5673 5673 5673
5713 5706 5699 5691 5684 5677 5671 5665 5660 5655 5651 5647 5645 5642 5641 5639 5638 5638 5637 5637 5637 5638 5639 5640 5643 5647 5650 5653 5656 5658 5660 5661 5663 5664 5665 5666 5666 5667 5667 5667 5667 5667 5667 5667
5696 5687 5680 5672 5665 5658 5651 5645 5640 5636 5631 5628 5626 5624 5623 5622 5622 5622 5622 5623 5624 5626 5627 5629 5632 5636 5639 5643 5645 5648 5651 5653 5655 5656 5658 5659 5660 5660 5660 5661 5661 5661 5661 5661
5677 5667 5659 5651 5643 5636 5629 5623 5616 5612 5608 5606 5605 5604 5604 5604 5604 5605 5606 5608 5611 5613 5616 5618 5621 5624 5628 5631 5634 5637 5641 5643 5646 5648 5649 5651 5652 5653 5654 5654 5654 5654 5655 5655
5655 5647 5639 5631 5623 5615 5606 5597 5590 5584 5582 5581 5581 5582 5583 5585 5586 5587 5589 5591 5595 5599 5603 5607 5610 5614 5617 5620 5623 5627 5630 5633 5636 5639 5641 5643 5644 5645 5646 5647 5647 5648 5649 5649
5636 5626 5617 5608 5598 5590 5583 5574 5566 5559 5555 5552 5553 5555 5559 5563 5566 5569 5572 5574 5579 5583 5589 5594 5599 5603 5607 5611 5614 5617 5620 5624 5627 5630 5632 5634 5636 5637 5639 5640 5641 5642 5642 5643
5618 5607 5597 5587 5578 5569 5562 5556 5549 5542 5535 5530 5526 5527 5531 5538 5544 5549 5553 5557 5562 5567 5573 5580 5586 5591 5597 5601 5605 5608 5612 5615 5619 5621 5624 5626 5628 5630 5631 5633 5634 5635 5636 5637
5601 5591 5582 5573 5565 5556 5548 5542 5535 5529 5522 5515 5509 5506 5507 5513 5520 5528 5535 5540 5546 5551 5558 5565 5572 5579 5586 5591 5596 5600 5603 5607 5611 5614 5617 5619 5621 5623 5625 5626 5627 5628 5630 5631
5588 5579 5570 5561 5554 5546 5538 5531 5524 5517 5510 5503 5496 5491 5490 5493 5500 5508 5517 5524 5531 5537 5544 5551 5559 5567 5575 5582 5587 5591 5596 5600 5604 5607 5610 5613 5616 5617 5619 5620 5621 5622 5623 5625
5575 5567 5559 5551 5544 5537 5529 5522 5514 5506 5499 5492 5486 5480 5477 5478 5483 5490 5500 5509 5517 5525 5531 5538 5547 5555 5564 5571 5578 5583 5589 5593 5598 5601 5605 5608 5610 5612 5614 5615 5616 5617 5618 5619
5565 5557 5550 5542 5535 5527 5520 5512 5504 5495 5488 5481 5475 5470 5467 5467 5470 5476 5486 5496 5505 5513 5520 5528 5536 5545 5553 5561 5569 5575 5581 5586 5591 5595 5599 5602 5605 5607 5608 5610 5611 5612 5612 5613
5557 5550 5543 5535 5527 5519 5510 5502 5493 5485 5477 5470 5464 5459 5456 5456 5459 5464 5474 5484 5494 5502 5511 5518 5526 5535 5544 5552 5561 5568 5574 5579 5584 5589 5592 5596 5598 5601 5603 5604 5606 5607 5607 5608
5551 5544 5536 5528 5519 5510 5501 5492 5484 5475 5467 5461 5455 5450 5446 5446 5449 5455 5464 5474 5485 5494 5503 5511 5518 5526 5535 5544 5553 5560 5567 5572 5577 5582 5585 5589 5592 5594 5596 5598 5600 5601 5602 5602
5545 5537 5529 5521 5512 5503 5494 5485 5477 5469 5461 5454 5448 5443 5439 5439 5441 5447 5456 5467 5478 5488 5497 5505 5512 5519 5528 5537 5545 5552 5559 5565 5570 5574 5578 5582 5585 5587 5590 5591 5593 5594 5595 5596
5540 5533 5525 5517 5509 5501 5492 5483 5474 5465 5458 5450 5444 5439 5436 5435 5437 5443 5452 5463 5474 5484 5492 5500 5507 5514 5521 5530 5537 5545 5551 5557 5562 5566 5571 5574 5577 5580 5583 5584 5586 5587 5588 5589